Temperature
7 6 6 5 5 4 3 2 1 1 1 2 2 1 0 -0 -0 -1 -1 -1 -2 -2 -2 -3 -3 -3 -3 -3 -3 -3 -3 -3 -3 -3 -2 -2 -2 -2
6 6 5 5 4 4 3 2 2 1 -0 1 1 0 -0 -1 -1 -2 -2 -2 -2 -3 -3 -3 -3 -3 -3 -4 -4 -4 -3 -3 -3 -3 -3 -3 -2 -2
6 5 5 4 4 3 3 2 2 1 -0 0 -0 -0 -1 -1 -1 -2 -2 -2 -3 -3 -3 -4 -4 -4 -4 -4 -4 -4 -4 -4 -4 -4 -4 -3 -3 -3
5 5 5 4 3 3 2 2 1 0 -1 -1 -1 -1 -1 -2 -2 -2 -3 -3 -3 -3 -4 -4 -4 -4 -5 -5 -5 -5 -5 -4 -4 -4 -4 -4 -4 -3
5 4 4 3 3 2 2 1 1 -0 -1 -1 -2 -2 -2 -2 -3 -3 -3 -4 -4 -4 -4 -4 -4 -5 -5 -5 -5 -5 -5 -5 -5 -5 -5 -4 -4 -4
4 4 3 3 2 2 1 0 -0 -1 -1 -2 -2 -2 -3 -3 -4 -4 -4 -4 -4 -4 -4 -5 -5 -5 -5 -5 -5 -5 -5 -5 -5 -5 -5 -5 -4 -4
4 3 2 2 1 1 0 -0 -1 -2 -2 -3 -3 -3 -3 -4 -4 -4 -5 -5 -5 -5 -5 -5 -5 -5 -5 -5 -5 -5 -5 -6 -6 -5 -5 -5 -5 -5
3 2 2 1 1 0 -1 -1 -2 -2 -3 -3 -4 -4 -4 -4 -5 -5 -5 -6 -6 -6 -6 -6 -6 -6 -6 -6 -6 -6 -6 -6 -6 -6 -5 -5 -5 -5
2 1 1 1 0 -0 -1 -1 -2 -2 -3 -4 -4 -4 -5 -5 -5 -5 -6 -6 -6 -6 -6 -6 -6 -6 -6 -6 -6 -6 -6 -6 -6 -6 -6 -6 -6 -5
1 1 0 -0 -1 -1 -2 -2 -2 -3 -3 -4 -4 -5 -5 -5 -6 -6 -6 -6 -6 -6 -7 -7 -6 -7 -6 -6 -6 -6 -7 -7 -7 -7 -6 -6 -6 -6
1 -0 -1 -1 -1 -2 -3 -3 -3 -4 -4 -5 -5 -5 -6 -6 -6 -6 -7 -7 -7 -7 -7 -8 -7 -7 -7 -6 -6 -7 -7 -7 -7 -7 -7 -6 -6 -6
-0 -1 -1 -2 -2 -3 -4 -4 -4 -5 -5 -5 -6 -6 -6 -6 -7 -7 -7 -8 -8 -8 -8 -8 -8 -8 -8 -7 -7 -7 -7 -7 -7 -7 -7 -7 -6 -6
-1 -2 -2 -3 -3 -4 -4 -5 -5 -5 -6 -6 -6 -7 -7 -7 -7 -8 -8 -8 -8 -8 -8 -9 -9 -9 -9 -9 -7 -7 -7 -7 -7 -7 -7 -7 -7 -7
-2 -3 -3 -4 -4 -5 -5 -6 -6 -6 -7 -7 -7 -7 -7 -8 -8 -8 -8 -8 -9 -9 -9 -9 -9 -9 -9 -9 -9 -8 -7 -8 -8 -7 -7 -7 -7 -7
-3 -4 -4 -5 -6 -6 -6 -7 -7 -7 -7 -8 -8 -8 -8 -8 -9 -9 -9 -9 -9 -9 -9 -9 -9 -9 -9 -9 -9 -8 -8 -8 -8 -8 -7 -7 -7 -7
-4 -5 -5 -6 -6 -7 -7 -7 -8 -8 -8 -9 -9 -9 -9 -9 -9 -9 -9 -9 -9 -9 -9 -9 -9 -9 -9 -9 -9 -9 -9 -9 -8 -8 -8 -7 -7 -7
-5 -6 -6 -7 -7 -8 -8 -8 -9 -9 -9 -9 -9 -9 -9 -9 -10 -10 -10 -10 -10 -10 -9 -9 -9 -9 -9 -9 -9 -9 -9 -9 -8 -8 -8 -7 -7 -7
-6 -7 -7 -8 -8 -9 -9 -9 -9 -9 -10 -10 -10 -10 -10 -10 -10 -10 -10 -10 -10 -10 -10 -10 -9 -9 -9 -9 -9 -9 -9 -9 -8 -8 -8 -8 -7 -7
-7 -8 -8 -9 -9 -10 -10 -10 -10 -10 -10 -10 -10 -10 -10 -10 -11 -11 -11 -10 -10 -10 -10 -10 -10 -10 -10 -9 -9 -9 -9 -9 -9 -8 -8 -8 -8 -7
-8 -9 -9 -10 -10 -10 -10 -10 -10 -10 -10 -11 -11 -11 -11 -11 -11 -11 -11 -11 -11 -10 -10 -10 -10 -10 -10 -10 -10 -9 -9 -9 -9 -9 -8 -8 -8 -7
-9 -9 -10 -10 -10 -11 -11 -11 -11 -11 -11 -11 -11 -11 -11 -11 -11 -11 -11 -11 -11 -11 -11 -10 -10 -10 -10 -10 -10 -9 -9 -9 -9 -9 -9 -8 -8 -7
-10 -10 -10 -10 -11 -11 -11 -11 -11 -11 -11 -11 -11 -11 -11 -11 -11 -11 -11 -11 -11 -11 -11 -11 -11 -10 -10 -10 -10 -10 -9 -9 -9 -9 -9 -9 -9 -9
-10 -10 -10 -11 -11 -11 -11 -11 -11 -11 -12 -12 -12 -12 -12 -12 -12 -12 -12 -11 -11 -11 -11 -11 -11 -10 -10 -10 -10 -10 -10 -9 -9 -9 -9 -9 -9 -9
Wind_Speed
6 5 4 4 4 4 4 4 4 4 5 5 4 4 7 9 12 13 14 18 21 21 22 23 24 24 25 24 25 25 25 26 26 26 27 27 27 27
4 5 5 4 4 4 4 4 5 5 6 5 5 5 7 10 15 15 15 19 20 22 23 24 24 24 24 24 24 25 25 26 26 26 27 28 28 28
5 6 6 5 4 4 4 4 5 5 8 7 5 4 5 7 11 14 15 14 15 21 23 24 24 24 24 24 25 25 26 26 26 26 27 27 28 28
7 6 7 5 5 5 4 5 6 6 7 10 6 4 6 7 7 7 10 13 13 19 22 23 24 24 24 24 25 25 25 25 26 26 27 27 28 28
7 7 7 6 6 6 6 6 6 6 6 7 8 5 5 5 6 7 7 8 13 17 20 21 22 23 24 24 24 25 25 25 26 26 26 26 26 26
7 7 7 7 8 7 6 7 7 7 6 7 8 6 5 6 4 6 7 6 8 11 16 18 20 22 23 24 24 24 24 24 25 25 25 24 24 24
6 6 7 9 11 9 7 6 6 6 6 7 8 6 6 5 5 5 8 8 8 7 7 8 10 9 14 19 21 22 23 24 24 24 24 23 22 22
7 7 7 8 11 14 16 15 12 8 7 6 7 7 8 7 6 7 7 8 6 3 4 7 6 7 8 11 18 22 22 23 22 22 22 21 20 20
7 7 6 7 10 7 12 16 15 17 16 10 9 9 8 7 7 8 8 8 9 5 5 8 5 8 7 13 20 21 21 21 21 20 19 19 19 20
7 7 8 8 8 9 8 8 9 9 12 9 8 9 8 7 8 8 9 8 6 5 4 6 6 6 8 9 17 19 18 19 19 19 19 18 18 18
6 7 7 8 14 16 10 8 8 8 12 16 17 15 17 18 14 6 5 6 7 5 3 4 4 5 6 6 10 15 17 18 19 18 18 19 18 16
5 6 10 11 14 16 8 7 9 9 7 8 10 11 10 11 14 6 4 6 6 5 2 3 4 4 5 4 4 7 10 15 18 18 18 18 17 8
5 5 6 13 15 16 14 7 11 11 6 6 5 6 6 5 5 5 5 5 6 5 4 3 3 3 4 5 5 5 5 6 8 10 14 16 16 11
5 5 6 13 15 15 12 13 17 14 5 4 5 5 4 4 5 6 6 6 7 7 8 6 4 4 4 6 6 5 5 6 5 6 6 12 12 14
5 10 12 14 13 10 13 16 13 6 5 5 5 5 4 5 4 4 5 5 6 8 9 8 6 5 5 6 6 6 6 5 4 5 6 7 6 6
6 8 12 12 10 10 10 8 5 5 5 5 5 4 3 3 3 3 4 4 4 5 6 7 6 5 5 6 7 7 6 5 5 7 7 6 5 5
5 3 3 3 4 4 4 5 4 4 5 4 4 4 4 4 4 3 3 2 3 4 5 4 5 5 7 6 5 6 6 5 6 6 6 6 5 5
6 3 4 4 5 5 6 5 4 5 5 5 4 4 4 4 4 4 3 3 4 4 4 4 4 4 3 3 5 5 4 5 6 6 4 5 6 5
4 3 4 5 5 5 5 5 5 5 4 4 4 4 4 3 4 4 4 4 4 4 4 4 3 2 3 4 5 3 4 5 6 5 4 4 5 7
3 4 5 5 5 5 5 5 5 5 4 4 4 4 3 3 4 4 4 4 4 4 4 3 3 3 3 4 4 5 7 5 4 5 5 5 5 8
4 5 5 5 5 5 5 5 5 5 5 4 4 4 3 3 4 4 4 7 5 3 4 4 5 7 3 2 4 4 5 7 8 5 5 5 5 4
5 5 5 5 5 5 5 5 5 5 5 4 4 4 3 3 4 5 4 4 4 4 4 4 5 4 2 2 4 5 5 6 7 10 8 5 3 4
5 5 5 6 5 5 5 5 6 5 5 4 4 4 3 4 4 4 4 4 4 4 4 4 3 3 3 3 4 4 5 5 4 4 5 8 9 10
Wind_Direction
202 205 210 218 210 209 201 192 204 266 282 264 266 263 265 281 295 301 298 304 307 308 308 307 306 306 305 305 305 304 303 302 301 300 298 296 295 294
202 206 220 224 222 216 214 213 206 219 260 258 250 257 274 286 296 302 296 302 305 306 305 304 304 304 304 305 305 305 304 303 301 300 299 298 296 294
211 213 227 225 228 231 226 225 225 216 255 273 256 260 263 270 286 290 291 289 291 301 302 302 303 304 304 305 305 305 304 304 303 302 301 299 297 296
220 221 235 234 237 239 235 238 240 229 240 272 278 267 259 263 266 274 287 290 287 296 300 302 302 302 303 304 305 305 305 305 304 302 300 299 298 296
220 223 234 232 245 247 244 248 250 253 241 260 278 266 261 264 272 276 277 280 287 294 298 300 301 302 303 305 306 306 307 306 303 301 300 299 298 297
225 226 231 230 240 247 251 250 252 258 258 262 274 275 266 264 264 276 288 276 281 289 289 293 297 301 303 305 305 306 306 305 304 302 302 301 300 299
236 237 239 245 252 258 261 255 250 254 260 266 274 278 275 275 271 266 286 289 278 268 270 279 289 288 293 298 302 302 304 305 305 305 304 304 304 303
240 247 252 259 267 275 279 281 278 271 267 264 271 272 275 268 268 272 283 293 292 258 259 279 276 280 285 286 295 302 306 307 308 309 309 308 307 306
236 246 260 263 275 267 278 285 286 285 284 280 273 270 273 269 272 278 275 279 283 281 281 286 275 279 282 290 300 305 308 311 312 314 315 314 312 311
240 243 251 261 266 272 264 268 266 270 278 280 266 266 264 266 262 273 282 285 274 267 257 278 284 279 288 288 296 305 313 318 319 318 317 317 316 315
256 253 256 259 275 285 282 274 276 275 284 285 285 286 292 299 302 303 299 300 297 288 246 254 279 291 288 281 291 309 318 321 322 321 320 318 317 318
267 266 274 280 286 292 286 278 281 281 277 284 288 294 296 298 305 302 286 286 290 291 263 259 277 305 302 281 282 299 308 316 321 321 321 320 320 319
267 268 269 288 294 297 299 287 287 296 288 282 279 279 279 279 282 275 258 254 266 270 270 268 269 262 262 294 295 285 290 300 310 312 320 323 324 325
268 265 272 294 299 301 302 300 303 311 310 296 287 283 281 280 278 274 267 259 252 258 271 266 257 261 280 292 292 295 301 296 298 303 308 321 324 325
279 292 298 303 306 305 303 307 312 311 297 290 287 283 274 270 275 284 284 279 277 274 272 262 250 261 264 276 286 294 306 302 301 310 312 310 306 311
296 300 307 310 312 309 309 310 302 286 288 280 281 276 275 275 278 283 286 297 300 298 289 278 264 257 265 268 276 287 293 295 309 313 311 305 301 302
305 304 305 307 305 301 298 294 289 290 294 283 278 278 284 288 291 290 279 286 282 291 301 305 291 272 257 262 277 283 293 295 298 309 312 311 303 304
326 314 305 303 301 301 301 299 292 290 289 288 281 276 281 287 292 296 288 280 284 286 289 296 314 327 330 298 247 271 289 293 303 308 304 307 307 308
318 301 299 299 297 297 296 293 290 289 285 280 278 278 280 283 290 297 298 294 290 287 288 292 304 313 318 310 299 276 287 304 309 311 305 298 296 303
293 286 286 287 288 288 288 288 288 289 285 277 272 271 271 278 287 290 290 287 289 290 297 301 292 280 271 283 289 292 299 294 299 306 307 303 290 298
285 282 281 282 283 283 285 285 284 283 281 275 270 267 268 269 278 284 288 300 304 292 295 294 286 305 290 284 294 294 295 303 304 298 303 309 311 316
280 279 279 277 277 276 278 280 283 284 282 273 271 270 268 266 273 281 284 287 286 280 280 285 296 311 302 281 286 293 299 308 314 317 311 305 302 313
279 279 278 278 274 273 271 272 275 277 271 267 266 263 263 268 269 273 280 281 283 284 290 298 307 306 291 278 282 288 297 306 312 320 313 322 321 311
Height
1516 1515 1514 1513 1512 1510 1508 1506 1504 1498 1494 1493 1493 1491 1489 1486 1483 1480 1477 1474 1471 1468 1465 1462 1459 1456 1452 1449 1446 1443 1441 1438 1435 1432 1430 1427 1425 1422
1511 1510 1509 1508 1507 1505 1503 1501 1499 1495 1490 1487 1487 1485 1483 1480 1478 1474 1470 1467 1464 1461 1458 1455 1452 1449 1445 1442 1439 1436 1433 1430 1427 1424 1422 1419 1417 1414
1507 1506 1504 1503 1502 1500 1498 1496 1493 1490 1484 1480 1480 1478 1476 1473 1470 1467 1464 1460 1457 1454 1450 1447 1445 1441 1438 1435 1432 1429 1426 1422 1419 1416 1414 1411 1408 1406
1502 1500 1499 1498 1496 1494 1492 1490 1487 1484 1480 1474 1472 1471 1469 1466 1463 1460 1457 1453 1450 1446 1443 1440 1437 1434 1431 1428 1425 1421 1418 1415 1411 1409 1406 1403 1400 1398
1496 1495 1494 1492 1490 1488 1486 1483 1481 1478 1474 1470 1465 1463 1461 1459 1455 1452 1449 1446 1443 1439 1436 1433 1430 1427 1424 1421 1417 1414 1410 1407 1404 1401 1398 1395 1392 1389
1491 1490 1488 1486 1484 1482 1479 1477 1474 1471 1468 1464 1459 1456 1454 1452 1449 1445 1440 1438 1435 1432 1429 1426 1423 1420 1417 1413 1410 1406 1403 1399 1396 1393 1390 1387 1384 1382
1485 1484 1482 1481 1478 1476 1473 1470 1467 1464 1461 1457 1453 1450 1447 1445 1442 1438 1434 1430 1426 1424 1421 1418 1415 1412 1409 1405 1402 1399 1396 1393 1390 1386 1383 1380 1378 1375
1479 1478 1476 1474 1472 1469 1467 1464 1462 1458 1454 1451 1447 1444 1441 1439 1435 1432 1428 1423 1418 1418 1414 1410 1408 1404 1402 1398 1395 1392 1389 1386 1383 1380 1377 1374 1371 1369
1473 1471 1469 1468 1465 1462 1459 1457 1455 1452 1450 1446 1441 1438 1435 1432 1429 1425 1422 1418 1414 1411 1408 1402 1401 1398 1395 1392 1389 1386 1383 1380 1377 1374 1371 1368 1366 1363
1467 1465 1463 1460 1458 1455 1452 1448 1446 1444 1442 1439 1436 1432 1429 1426 1423 1420 1416 1411 1408 1406 1403 1398 1394 1391 1389 1386 1383 1380 1377 1374 1371 1368 1366 1363 1361 1358
1461 1459 1456 1453 1451 1448 1445 1441 1438 1436 1434 1431 1429 1426 1423 1420 1418 1414 1410 1406 1401 1399 1397 1394 1389 1385 1382 1380 1378 1375 1372 1369 1366 1363 1361 1358 1356 1353
1454 1452 1450 1447 1444 1442 1439 1435 1431 1428 1426 1423 1421 1418 1416 1413 1411 1408 1404 1401 1397 1393 1391 1389 1385 1382 1377 1374 1373 1371 1368 1365 1362 1359 1356 1354 1351 1349
1446 1444 1442 1440 1437 1435 1432 1429 1425 1422 1419 1416 1413 1410 1408 1406 1404 1401 1399 1396 1393 1389 1388 1385 1381 1379 1376 1371 1367 1366 1364 1360 1357 1354 1352 1350 1347 1345
1440 1437 1435 1433 1430 1427 1425 1422 1420 1416 1413 1409 1406 1404 1402 1399 1397 1395 1393 1391 1388 1386 1383 1381 1378 1376 1373 1369 1365 1362 1360 1357 1354 1351 1349 1346 1344 1342
1433 1431 1428 1426 1423 1420 1418 1416 1413 1409 1406 1403 1401 1398 1396 1394 1392 1389 1387 1385 1383 1381 1379 1377 1375 1372 1370 1367 1363 1359 1356 1354 1352 1349 1346 1343 1341 1339
1427 1424 1421 1419 1416 1413 1411 1409 1406 1403 1401 1398 1395 1393 1391 1389 1387 1384 1382 1380 1378 1376 1375 1373 1371 1368 1366 1363 1361 1357 1355 1352 1349 1346 1344 1341 1339 1337
1420 1417 1415 1412 1409 1407 1405 1402 1400 1398 1396 1393 1391 1388 1386 1384 1382 1380 1378 1376 1374 1372 1370 1369 1367 1365 1363 1360 1358 1355 1353 1350 1348 1345 1342 1339 1337 1335
1414 1411 1409 1406 1404 1401 1399 1396 1395 1393 1390 1388 1386 1384 1382 1380 1378 1376 1375 1373 1371 1369 1367 1365 1363 1361 1360 1358 1356 1353 1351 1348 1345 1343 1340 1337 1335 1333
1409 1406 1403 1401 1399 1396 1394 1392 1389 1388 1386 1384 1382 1380 1378 1376 1374 1373 1371 1370 1368 1366 1365 1363 1361 1359 1357 1355 1354 1352 1349 1346 1343 1341 1339 1336 1333 1331
1403 1401 1398 1396 1394 1391 1389 1387 1385 1383 1381 1379 1377 1376 1374 1373 1371 1370 1368 1367 1365 1364 1362 1361 1359 1358 1356 1354 1351 1349 1348 1345 1342 1339 1337 1334 1332 1330
1398 1395 1393 1391 1388 1386 1384 1382 1380 1378 1376 1375 1373 1372 1371 1369 1368 1366 1365 1364 1363 1361 1360 1359 1357 1356 1354 1352 1350 1347 1346 1344 1341 1338 1335 1333 1330 1328
1392 1390 1388 1386 1383 1381 1379 1377 1375 1374 1372 1371 1369 1368 1367 1366 1365 1363 1362 1361 1360 1359 1358 1357 1355 1354 1352 1350 1347 1345 1343 1342 1340 1338 1335 1333 1331 1328
1387 1385 1383 1381 1378 1376 1374 1372 1371 1369 1368 1367 1365 1364 1363 1362 1361 1360 1359 1358 1357 1356 1355 1354 1353 1351 1350 1348 1346 1344 1342 1340 1338 1336 1335 1333 1331 1329